Cando, ND

7:15 AM CDT on September 23, 2017 (GMT -0500)
Cando

Weather History for K9D7 - March, 2014

Change the Weather History Date:

Tuesday, March 4, 2014

  Actual Average (KDVL) Record (KDVL)
Temperature  
Mean Temperature -2 °F -  
Max Temperature 6 °F 28 °F 50 °F (1973)
Min Temperature -11 °F 8 °F -21 °F (1960)
Degree Days  
Heating Degree Days 68    
Moisture  
Dew Point -5 °F    
Average Humidity 81    
Maximum Humidity 92    
Minimum Humidity 72    
Precipitation  
Precipitation 0.01 in - - ()
Sea Level Pressure  
Sea Level Pressure 30.19 in    
Wind  
Wind Speed 6 mph (East)    
Max Wind Speed 12 mph    
Max Gust Speed -    
Visibility 10 miles    
Events Snow    
Averages and records for this station are not official NWS values.
T = Trace of Precipitation, MM = Missing Value Source: NWS Daily Summary

Daily Weather History Graph

Daily Weather History Graph

Search for Another Location

Airport or City:

Trip Planner

Search our weather history database for the weather conditions in past years. The results will help you decide how hot, cold, wet, or windy it might be!

Date:

Astronomy

Mar. 04, 2014 Rise Set
Actual Time 7:12 AM CST 6:25 PM CST
Civil Twilight 6:41 AM CST 6:57 PM CST
Nautical Twilight 6:04 AM CST 7:33 PM CST
Astronomical Twilight 5:28 AM CST 8:09 PM CST
Moon 8:39 AM CST (3/4) 10:57 PM CST (3/4)
Length of Visible Light 12h 15m
Length of Day
11h 13m
Waxing Crescent, 15% of the Moon is Illuminated
Mar 4
Waxing Crescent
Mar 8
First Quarter
Mar 16
Full
Mar 23
Last Quarter
Mar 30
New

Hourly Weather History & Observations

Time (CST) Temp. Windchill Dew Point Humidity Pressure Visibility Wind Dir Wind Speed Gust Speed Precip Events Conditions
12:15 AM -0.4 °F -12.0 °F -4.0 °F 85% 30.12 in 10.0 mi East 5.8 mph - N/A   Overcast
12:35 AM -0.4 °F -12.0 °F -4.0 °F 85% 30.12 in 10.0 mi East 5.8 mph - N/A   Overcast
12:55 AM -0.4 °F -8.3 °F -4.0 °F 85% 30.12 in 10.0 mi ENE 3.5 mph - N/A   Overcast
1:15 AM -4.0 °F -14.6 °F -7.6 °F 85% 30.12 in 10.0 mi ENE 4.6 mph - N/A   Overcast
1:35 AM -7.6 °F -18.8 °F -11.2 °F 84% 30.13 in 10.0 mi East 4.6 mph - N/A   Mostly Cloudy
1:55 AM -7.6 °F -16.5 °F -11.2 °F 84% 30.14 in 10.0 mi East 3.5 mph - N/A   Overcast
2:15 AM -7.6 °F -16.5 °F -11.2 °F 84% 30.14 in 10.0 mi East 3.5 mph - N/A   Overcast
2:35 AM -11.2 °F -26.4 °F -16.6 °F 77% 30.14 in 10.0 mi NE 6.9 mph - N/A   Overcast
2:55 AM -9.4 °F -22.7 °F -13.0 °F 84% 30.14 in 10.0 mi NE 5.8 mph - N/A   Overcast
3:15 AM -9.4 °F -20.9 °F -13.0 °F 84% 30.15 in 10.0 mi NE 4.6 mph - N/A   Scattered Clouds
3:35 AM -9.4 °F -20.9 °F -14.8 °F 77% 30.16 in 10.0 mi NNE 4.6 mph - N/A   Partly Cloudy
3:55 AM -11.2 °F -24.8 °F -16.6 °F 77% 30.16 in 10.0 mi NE 5.8 mph - N/A   Mostly Cloudy
4:15 AM -11.2 °F -27.8 °F -16.6 °F 77% 30.15 in 10.0 mi NE 8.1 mph - N/A   Mostly Cloudy
4:35 AM -11.2 °F -29.0 °F -14.8 °F 84% 30.12 in 10.0 mi NE 9.2 mph - N/A   Scattered Clouds
4:55 AM -7.6 °F -22.1 °F - N/A% 30.14 in 10.0 mi NE 6.9 mph - N/A   Scattered Clouds
5:15 AM -9.4 °F -24.3 °F -13.0 °F 84% 30.13 in 10.0 mi NE 6.9 mph - N/A   Scattered Clouds
5:35 AM -9.4 °F -18.6 °F -13.0 °F 84% 30.14 in 10.0 mi NNE 3.5 mph - N/A   Mostly Cloudy
5:55 AM -7.6 °F -18.8 °F -13.0 °F 77% 30.14 in 10.0 mi NE 4.6 mph - N/A   Clear
6:15 AM -9.4 °F -20.9 °F -13.0 °F 84% 30.14 in 10.0 mi NE 4.6 mph - N/A   Clear
6:35 AM -7.6 °F -18.8 °F -13.0 °F 77% 30.14 in 8.0 mi NE 4.6 mph - N/A   Clear
6:55 AM -7.6 °F -18.8 °F -11.2 °F 84% 30.15 in 9.0 mi NE 4.6 mph - N/A   Scattered Clouds
7:15 AM -5.8 °F - -9.4 °F 84% 30.16 in 8.0 mi Calm Calm - N/A   Scattered Clouds
7:35 AM -4.0 °F - -9.4 °F 78% 30.16 in 7.0 mi Calm Calm - N/A   Scattered Clouds
7:55 AM -4.0 °F - -9.4 °F 78% 30.17 in 4.0 mi Calm Calm - N/A   Clear
8:15 AM -4.0 °F -16.3 °F -9.4 °F 78% 30.18 in 8.0 mi NNE 5.8 mph - N/A   Clear
8:35 AM -4.0 °F -16.3 °F -9.4 °F 78% 30.17 in 8.0 mi NE 5.8 mph - N/A   Clear
8:55 AM -2.2 °F -12.5 °F -7.6 °F 78% 30.18 in 8.0 mi ENE 4.6 mph - N/A   Clear
9:15 AM -0.4 °F -12.0 °F -4.0 °F 85% 30.18 in 9.0 mi East 5.8 mph - N/A   Clear
9:35 AM -0.4 °F -15.7 °F -2.2 °F 92% 30.18 in 10.0 mi East 9.2 mph - N/A   Clear
9:55 AM -0.4 °F -12.0 °F -4.0 °F 85% 30.18 in 10.0 mi East 5.8 mph - N/A   Clear
10:15 AM -0.4 °F -13.4 °F -2.2 °F 92% 30.19 in 10.0 mi East 6.9 mph - N/A   Clear
10:35 AM -0.4 °F -15.7 °F -4.0 °F 85% 30.19 in 10.0 mi East 9.2 mph - N/A   Partly Cloudy
10:55 AM -0.4 °F -16.7 °F -2.2 °F 92% 30.19 in 10.0 mi East 10.4 mph - N/A   Mostly Cloudy
11:15 AM 1.4 °F -14.5 °F -2.2 °F 85% 30.19 in 10.0 mi East 10.4 mph - N/A   Overcast
11:35 AM 1.4 °F -15.3 °F -0.4 °F 92% 30.19 in 10.0 mi ESE 11.5 mph - N/A   Overcast
11:55 AM 1.4 °F -13.5 °F -0.4 °F 92% 30.19 in 10.0 mi ESE 9.2 mph - N/A   Overcast
12:15 PM 3.2 °F -11.3 °F -0.4 °F 85% 30.20 in 10.0 mi ESE 9.2 mph - N/A   Overcast
1:55 PM 5.0 °F -8.1 °F -0.4 °F 78% 30.19 in 10.0 mi ESE 8.1 mph - N/A   Mostly Cloudy
2:15 PM 5.0 °F -8.1 °F -0.4 °F 78% 30.19 in 10.0 mi ESE 8.1 mph - N/A   Overcast
2:35 PM 5.0 °F -9.1 °F -0.4 °F 78% 30.20 in 10.0 mi East 9.2 mph - N/A   Mostly Cloudy
2:55 PM 5.0 °F -8.1 °F -0.4 °F 78% 30.20 in 10.0 mi ESE 8.1 mph - N/A   Mostly Cloudy
3:15 PM 5.0 °F -9.1 °F -0.4 °F 78% 30.20 in 10.0 mi East 9.2 mph - N/A   Mostly Cloudy
3:35 PM 5.0 °F -9.1 °F -0.4 °F 78% 30.20 in 10.0 mi East 9.2 mph - N/A   Scattered Clouds
3:55 PM 6.8 °F -6.9 °F -0.4 °F 72% 30.20 in 10.0 mi East 9.2 mph - N/A   Mostly Cloudy
4:15 PM 6.8 °F -6.9 °F -0.4 °F 72% 30.20 in 10.0 mi ESE 9.2 mph - N/A   Mostly Cloudy
4:35 PM 5.0 °F -9.1 °F -0.4 °F 78% 30.21 in 10.0 mi East 9.2 mph - N/A   Overcast
4:55 PM 5.0 °F -6.9 °F -0.4 °F 78% 30.21 in 10.0 mi East 6.9 mph - N/A   Overcast
5:15 PM 5.0 °F -8.1 °F -0.4 °F 78% 30.22 in 10.0 mi East 8.1 mph - N/A   Overcast
5:35 PM 5.0 °F -8.1 °F -0.4 °F 78% 30.22 in 10.0 mi East 8.1 mph - N/A   Overcast
5:55 PM 5.0 °F -9.1 °F -0.4 °F 78% 30.23 in 10.0 mi East 9.2 mph - N/A   Overcast
6:15 PM 5.0 °F -8.1 °F -0.4 °F 78% 30.23 in 10.0 mi ENE 8.1 mph - N/A   Overcast
6:35 PM 3.2 °F -9.1 °F -0.4 °F 85% 30.24 in 10.0 mi East 6.9 mph - N/A   Overcast
6:55 PM 5.0 °F -5.6 °F -0.4 °F 78% 30.24 in 10.0 mi East 5.8 mph - N/A   Overcast
7:15 PM 5.0 °F -6.9 °F -0.4 °F 78% 30.24 in 10.0 mi East 6.9 mph - N/A   Overcast
7:35 PM 3.2 °F -11.3 °F -0.4 °F 85% 30.23 in 10.0 mi East 9.2 mph - N/A   Overcast
7:55 PM 5.0 °F -9.1 °F -0.4 °F 78% 30.24 in 10.0 mi East 9.2 mph - N/A   Overcast
8:15 PM 5.0 °F -8.1 °F -0.4 °F 78% 30.24 in 10.0 mi East 8.1 mph - N/A   Overcast
8:35 PM 5.0 °F -10.8 °F -0.4 °F 78% 30.24 in 10.0 mi East 11.5 mph - N/A   Overcast
8:55 PM 5.0 °F -8.1 °F -0.4 °F 78% 30.26 in 10.0 mi East 8.1 mph - N/A Snow Light Snow
9:15 PM 5.0 °F -8.1 °F -0.4 °F 78% 30.27 in 10.0 mi East 8.1 mph - N/A Snow Light Snow
9:35 PM 5.0 °F -9.1 °F -0.4 °F 78% 30.27 in 10.0 mi East 9.2 mph - N/A   Mostly Cloudy
9:55 PM 5.0 °F -6.9 °F -0.4 °F 78% 30.28 in 7.0 mi East 6.9 mph - N/A Snow Light Snow
10:15 PM 5.0 °F -9.1 °F -0.4 °F 78% 30.28 in 8.0 mi ESE 9.2 mph - N/A   Overcast
10:35 PM 5.0 °F -8.1 °F -0.4 °F 78% 30.27 in 7.0 mi East 8.1 mph - N/A   Overcast
10:55 PM 5.0 °F -6.9 °F -0.4 °F 78% 30.27 in 3.0 mi ESE 6.9 mph - 0.01 in Snow Light Snow
11:15 PM 5.0 °F -9.1 °F -0.4 °F 78% 30.27 in 9.0 mi ESE 9.2 mph - N/A   Overcast
11:35 PM 5.0 °F -9.1 °F -0.4 °F 78% 30.26 in 10.0 mi ESE 9.2 mph - N/A   Overcast
11:55 PM 5.0 °F -10.0 °F -0.4 °F 78% 30.25 in 10.0 mi ESE 10.4 mph - N/A   Mostly Cloudy